Location: Marsån
(66.4167°N, 22.2833°E)
Time: 07:50:33
(UTC+00:00)

Landsat 7 - Pass Details

Date: 24 February 2024
Orbit: 690 x 692 km, 97.9° (Epoch: 20 April)

Event Time Altitude Azimuth Distance (km) Brightness Sun altitude
Rises 16:48:16 0° 158° (SSE) 3,067 6.9 -9.1°
Reaches altitude 10° 16:50:30 10° 159° (SSE) 2,154 6.2 -9.3°
Maximum altitude 16:55:14 87° 248° (WSW) 705 3.9 -9.8°
Drops below altitude 10° 17:00:01 10° 339° (NNW) 2,168 6.6 -10.3°
Sets 17:02:16 0° 340° (NNW) 3,089 7.4 -10.5°
